Location: Newark
(13.8117°N, 3.6025°W)
Time: 10:01:25
(UTC+00:00)

Tiros 1 despin weight - Visible Passes

Search period start: 22 August 2019 00:00
Search period end: 01 September 2019 00:00
Orbit: 594 x 642 km, 48.2° (Epoch: 21 August)

Date Brightness Start Highest point End Pass type
(mag) Time Alt. Az. Time Alt. Az. Time Alt. Az.
24 Aug ? 19:58:12 10° SSW 20:00:00 22° S 20:00:00 22° S visible
25 Aug ? 20:14:26 10° SW 20:18:04 58° WSW 20:18:04 58° WSW visible
26 Aug ? 04:55:33 10° N 04:57:59 14° NE 05:00:25 10° ENE visible
26 Aug ? 18:50:40 10° S 18:54:05 22° SE 18:57:30 10° ENE visible
26 Aug ? 20:31:40 10° WSW 20:35:27 28° NW 20:36:12 26° NNW visible
27 Aug ? 05:10:37 10° NNW 05:14:44 32° NE 05:18:54 10° ESE visible
27 Aug ? 19:06:14 10° SSW 19:10:35 60° SE 19:14:55 10° NE visible
27 Aug ? 20:50:36 10° WNW 20:52:14 12° NW 20:53:52 10° NNW visible
28 Aug ? 05:26:44 10° NW 05:31:21 83° NE 05:36:01 10° SE visible
28 Aug ? 19:22:53 10° WSW 19:27:08 48° NW 19:31:23 10° NNE visible
29 Aug ? 04:03:01 10° N 04:06:21 20° NE 04:09:44 10° E visible
29 Aug ? 19:40:38 10° W 19:43:49 19° NW 19:47:01 10° N visible
30 Aug ? 04:20:29 23° NNW 04:23:03 47° NE 04:27:30 10° ESE visible
31 Aug ? 04:38:38 50° WNW 04:39:37 65° SW 04:44:13 10° SSE visible
